Year,Month,Day,Hour,Minute,Value (Times are PST for temperature in C)
2012,02,20,00,02,5.30
2012,02,20,00,03,5.40
2012,02,20,00,04,5.40
2012,02,20,00,05,5.40
2012,02,20,00,06,5.40
2012,02,20,00,07,5.40
2012,02,20,00,08,5.40
2012,02,20,00,09,5.40
2012,02,20,00,11,5.40
2012,02,20,00,12,5.40
2012,02,20,00,13,5.40
2012,02,20,00,14,5.40
2012,02,20,00,15,5.40
2012,02,20,00,16,5.40
2012,02,20,00,17,5.40
2012,02,20,00,18,5.40
2012,02,20,00,19,5.40
2012,02,20,00,20,5.40
2012,02,20,00,21,5.30
2012,02,20,00,22,5.30
2012,02,20,00,24,5.30
2012,02,20,00,25,5.30
2012,02,20,00,26,5.30
2012,02,20,00,27,5.30
2012,02,20,00,29,5.30
2012,02,20,00,30,5.20
2012,02,20,00,31,5.20
2012,02,20,00,33,5.20
2012,02,20,00,34,5.20
2012,02,20,00,36,5.20
2012,02,20,00,37,5.20
2012,02,20,00,39,5.20
2012,02,20,00,40,5.20
2012,02,20,00,41,5.20
2012,02,20,00,42,5.10
2012,02,20,00,43,5.20
2012,02,20,00,45,5.10
2012,02,20,00,46,5.10
2012,02,20,00,47,5.10
2012,02,20,00,49,5.10
2012,02,20,00,50,5.10
2012,02,20,00,51,5.10
2012,02,20,00,53,5.10
2012,02,20,00,54,5.10
2012,02,20,00,55,5.10
2012,02,20,00,56,5.00
2012,02,20,00,57,5.00
2012,02,20,00,59,5.00
2012,02,20,01,00,5.10
2012,02,20,01,01,5.00
2012,02,20,01,02,5.00
2012,02,20,01,03,5.00
2012,02,20,01,04,5.00
2012,02,20,01,05,5.00
2012,02,20,01,06,5.00
2012,02,20,01,09,5.00
2012,02,20,01,10,5.00
2012,02,20,01,11,5.00
2012,02,20,01,12,5.00
2012,02,20,01,14,5.00
2012,02,20,01,16,5.00
2012,02,20,01,18,5.00
2012,02,20,01,19,5.00
2012,02,20,01,20,5.00
2012,02,20,01,21,5.00
2012,02,20,01,23,5.00
2012,02,20,01,25,5.00
2012,02,20,01,26,5.00
2012,02,20,01,28,4.90
2012,02,20,01,29,4.90
2012,02,20,01,30,4.90
2012,02,20,01,32,4.90
2012,02,20,01,33,4.90
2012,02,20,01,34,4.90
2012,02,20,01,35,4.90
2012,02,20,01,37,4.90
2012,02,20,01,38,4.90
2012,02,20,01,39,4.90
2012,02,20,01,40,4.90
2012,02,20,01,42,4.90
2012,02,20,01,43,4.90
2012,02,20,01,44,4.90
2012,02,20,01,45,5.00
2012,02,20,01,47,5.00
2012,02,20,01,48,5.00
2012,02,20,01,49,5.00
2012,02,20,01,50,5.00
2012,02,20,01,52,5.10
2012,02,20,01,53,5.10
2012,02,20,01,54,5.10
2012,02,20,01,56,5.10
2012,02,20,01,57,5.10
2012,02,20,01,58,5.10
2012,02,20,01,59,5.10
2012,02,20,02,00,5.10
2012,02,20,02,01,5.10
2012,02,20,02,02,5.10
2012,02,20,02,03,5.10
2012,02,20,02,05,5.10
2012,02,20,02,06,5.10
2012,02,20,02,07,5.10
2012,02,20,02,08,5.10
2012,02,20,02,10,5.10
2012,02,20,02,11,5.10
2012,02,20,02,12,5.10
2012,02,20,02,14,5.10
2012,02,20,02,15,5.10
2012,02,20,02,16,5.10
2012,02,20,02,17,5.10
2012,02,20,02,19,5.10
2012,02,20,02,20,5.10
2012,02,20,02,21,5.10
2012,02,20,02,22,5.10
2012,02,20,02,24,5.10
2012,02,20,02,25,5.10
2012,02,20,02,26,5.10
2012,02,20,02,27,5.10
2012,02,20,02,29,5.10
2012,02,20,02,30,5.10
2012,02,20,02,31,5.10
2012,02,20,02,32,5.10
2012,02,20,02,34,5.10
2012,02,20,02,35,5.10
2012,02,20,02,36,5.10
2012,02,20,02,37,5.10
2012,02,20,02,39,5.10
2012,02,20,02,40,5.10
2012,02,20,02,41,5.10
2012,02,20,02,43,5.10
2012,02,20,02,44,5.10
2012,02,20,02,45,5.10
2012,02,20,02,46,5.10
2012,02,20,02,48,5.10
2012,02,20,02,49,5.10
2012,02,20,02,50,5.10
2012,02,20,02,51,5.10
2012,02,20,02,52,5.10
2012,02,20,02,54,5.10
2012,02,20,02,55,5.10
2012,02,20,02,56,5.00
2012,02,20,02,57,5.10
2012,02,20,02,59,5.00
2012,02,20,03,00,5.10
2012,02,20,03,01,5.10
2012,02,20,03,02,5.10
2012,02,20,03,03,5.10
2012,02,20,03,04,5.10
2012,02,20,03,05,5.10
2012,02,20,03,06,5.00
2012,02,20,03,08,5.10
2012,02,20,03,09,5.10
2012,02,20,03,10,5.10
2012,02,20,03,11,5.00
2012,02,20,03,13,5.00
2012,02,20,03,14,5.00
2012,02,20,03,15,5.00
2012,02,20,03,16,5.00
2012,02,20,03,18,5.00
2012,02,20,03,19,5.00
2012,02,20,03,20,5.00
2012,02,20,03,22,5.00
2012,02,20,03,23,5.00
2012,02,20,03,24,5.00
2012,02,20,03,25,5.00
2012,02,20,03,27,5.00
2012,02,20,03,28,5.00
2012,02,20,03,29,5.00
2012,02,20,03,30,5.00
2012,02,20,03,32,5.00
2012,02,20,03,33,5.10
2012,02,20,03,34,5.00
2012,02,20,03,35,5.10
2012,02,20,03,37,5.10
2012,02,20,03,38,5.10
2012,02,20,03,39,5.10
2012,02,20,03,41,5.10
2012,02,20,03,42,5.10
2012,02,20,03,43,5.10
2012,02,20,03,45,5.10
2012,02,20,03,46,5.10
2012,02,20,03,47,5.10
2012,02,20,03,48,5.10
2012,02,20,03,50,5.10
2012,02,20,03,51,5.10
2012,02,20,03,52,5.10
2012,02,20,03,54,5.10
2012,02,20,03,55,5.10
2012,02,20,03,56,5.10
2012,02,20,03,57,5.10
2012,02,20,03,58,5.10
2012,02,20,03,59,5.10
2012,02,20,04,00,5.10
2012,02,20,04,01,5.10
2012,02,20,04,02,5.10
2012,02,20,04,03,5.10
2012,02,20,04,05,5.10
2012,02,20,04,06,5.10
2012,02,20,04,07,5.10
2012,02,20,04,08,5.10
2012,02,20,04,09,5.10
2012,02,20,04,10,5.10
2012,02,20,04,11,5.10
2012,02,20,04,12,5.00
2012,02,20,04,13,5.00
2012,02,20,04,14,5.00
2012,02,20,04,15,5.00
2012,02,20,04,16,5.00
2012,02,20,04,17,5.10
2012,02,20,04,19,5.00
2012,02,20,04,20,5.10
2012,02,20,04,21,5.10
2012,02,20,04,22,5.00
2012,02,20,04,23,5.00
2012,02,20,04,24,5.00
2012,02,20,04,25,5.00
2012,02,20,04,26,5.00
2012,02,20,04,27,5.00
2012,02,20,04,28,5.00
2012,02,20,04,29,5.00
2012,02,20,04,31,5.00
2012,02,20,04,32,5.00
2012,02,20,04,33,5.00
2012,02,20,04,35,5.00
2012,02,20,04,36,5.00
2012,02,20,04,37,5.00
2012,02,20,04,39,5.00
2012,02,20,04,40,5.00
2012,02,20,04,41,4.90
2012,02,20,04,42,4.90
2012,02,20,04,44,4.90
2012,02,20,04,45,4.90
2012,02,20,04,46,4.90
2012,02,20,04,48,4.90
2012,02,20,04,49,4.90
2012,02,20,04,50,4.90
2012,02,20,04,52,4.90
2012,02,20,04,53,4.90
2012,02,20,04,54,4.90
2012,02,20,04,55,4.90
2012,02,20,04,57,4.90
2012,02,20,04,58,4.90
2012,02,20,04,59,4.90
2012,02,20,05,00,4.90
2012,02,20,05,01,4.90
2012,02,20,05,03,4.90
2012,02,20,05,04,4.90
2012,02,20,05,05,4.90
2012,02,20,05,06,4.90
2012,02,20,05,08,4.90
2012,02,20,05,09,4.90
2012,02,20,05,10,4.90
2012,02,20,05,12,4.90
2012,02,20,05,14,4.90
2012,02,20,05,15,4.90
2012,02,20,05,16,4.90
2012,02,20,05,17,4.90
2012,02,20,05,19,4.90
2012,02,20,05,20,4.90
2012,02,20,05,21,4.90
2012,02,20,05,22,4.90
2012,02,20,05,24,4.90
2012,02,20,05,25,4.90
2012,02,20,05,26,4.90
2012,02,20,05,27,4.90
2012,02,20,05,29,4.90
2012,02,20,05,30,4.90
2012,02,20,05,31,4.90
2012,02,20,05,32,4.90
2012,02,20,05,34,5.00
2012,02,20,05,35,5.00
2012,02,20,05,36,5.00
2012,02,20,05,37,4.90
2012,02,20,05,39,5.00
2012,02,20,05,40,5.00
2012,02,20,05,41,5.00
2012,02,20,05,42,5.00
2012,02,20,05,44,4.90
2012,02,20,05,45,5.00
2012,02,20,05,46,5.00
2012,02,20,05,47,5.00
2012,02,20,05,48,5.00
2012,02,20,05,49,5.00
2012,02,20,05,51,5.00
2012,02,20,05,52,5.00
2012,02,20,05,53,5.00
2012,02,20,05,54,5.00
2012,02,20,05,56,5.00
2012,02,20,05,57,5.10
2012,02,20,05,58,5.00
2012,02,20,05,59,5.00
2012,02,20,06,01,5.10
2012,02,20,06,02,5.10
2012,02,20,06,03,5.10
2012,02,20,06,04,5.00
2012,02,20,06,05,5.10
2012,02,20,06,06,5.10
2012,02,20,06,07,5.10
2012,02,20,06,08,5.10
2012,02,20,06,09,5.10
2012,02,20,06,10,5.10
2012,02,20,06,11,5.10
2012,02,20,06,12,5.10
2012,02,20,06,13,5.10
2012,02,20,06,14,5.10
2012,02,20,06,16,5.10
2012,02,20,06,17,5.10
2012,02,20,06,18,5.10
2012,02,20,06,19,5.10
2012,02,20,06,21,5.10
2012,02,20,06,22,5.10
2012,02,20,06,23,5.10
2012,02,20,06,24,5.10
2012,02,20,06,26,5.10
2012,02,20,06,27,5.10
2012,02,20,06,28,5.10
2012,02,20,06,29,5.10
2012,02,20,06,31,5.10
2012,02,20,06,32,5.10
2012,02,20,06,33,5.10
2012,02,20,06,34,5.10
2012,02,20,06,36,5.10
2012,02,20,06,37,5.10
2012,02,20,06,38,5.10
2012,02,20,06,39,5.10
2012,02,20,06,40,5.10
2012,02,20,06,42,5.00
2012,02,20,06,43,5.10
2012,02,20,06,44,5.10
2012,02,20,06,45,5.00
2012,02,20,06,47,5.10
2012,02,20,06,48,5.00
2012,02,20,06,49,5.10
2012,02,20,06,51,5.00
2012,02,20,06,52,5.00
2012,02,20,06,53,5.00
2012,02,20,06,54,5.00
2012,02,20,06,56,5.00
2012,02,20,06,57,5.00
2012,02,20,06,58,5.00
2012,02,20,06,59,5.00
2012,02,20,07,00,5.00
2012,02,20,07,01,5.00
2012,02,20,07,02,5.00
2012,02,20,07,03,5.00
2012,02,20,07,04,5.00
2012,02,20,07,06,4.90
2012,02,20,07,07,4.90
2012,02,20,07,08,4.90
2012,02,20,07,09,4.90
2012,02,20,07,11,4.90
2012,02,20,07,12,4.90
2012,02,20,07,13,4.90
2012,02,20,07,15,4.90
2012,02,20,07,16,4.90
2012,02,20,07,17,4.90
2012,02,20,07,18,4.90
2012,02,20,07,20,4.90
2012,02,20,07,21,4.90
2012,02,20,07,22,4.90
2012,02,20,07,23,4.90
2012,02,20,07,25,4.80
2012,02,20,07,26,4.80
2012,02,20,07,27,4.80
2012,02,20,07,28,4.80
2012,02,20,07,30,4.80
2012,02,20,07,31,4.80
2012,02,20,07,32,4.80
2012,02,20,07,33,4.80
2012,02,20,07,35,4.80
2012,02,20,07,36,4.80
2012,02,20,07,37,4.80
2012,02,20,07,38,4.80
2012,02,20,07,39,4.80
2012,02,20,07,41,4.80
2012,02,20,07,42,4.80
2012,02,20,07,43,4.80
2012,02,20,07,44,4.80
2012,02,20,07,45,4.80
2012,02,20,07,47,4.80
2012,02,20,07,48,4.80
2012,02,20,07,49,4.80
2012,02,20,07,50,4.80
2012,02,20,07,51,4.80
2012,02,20,07,52,4.80
2012,02,20,07,53,4.80
2012,02,20,07,54,4.80
2012,02,20,07,55,4.80
2012,02,20,07,56,4.80
2012,02,20,07,57,4.80
2012,02,20,07,59,4.80
2012,02,20,08,00,4.80
2012,02,20,08,01,4.80
2012,02,20,08,02,4.80
2012,02,20,08,04,4.80
2012,02,20,08,05,4.80
2012,02,20,08,06,4.80
2012,02,20,08,07,4.80
2012,02,20,08,08,4.80
2012,02,20,08,09,4.80
2012,02,20,08,10,4.80
2012,02,20,08,11,4.80
2012,02,20,08,13,4.80
2012,02,20,08,14,4.80
2012,02,20,08,15,4.80
2012,02,20,08,16,4.80
2012,02,20,08,18,4.80
2012,02,20,08,19,4.90
2012,02,20,08,20,4.90
2012,02,20,08,21,4.90
2012,02,20,08,23,4.90
2012,02,20,08,24,4.90
2012,02,20,08,25,4.90
2012,02,20,08,27,4.90
2012,02,20,08,29,4.90
2012,02,20,08,31,4.90
2012,02,20,08,32,4.90
2012,02,20,08,33,4.90
2012,02,20,08,34,4.90
2012,02,20,08,36,4.90
2012,02,20,08,37,5.00
2012,02,20,08,39,5.00
2012,02,20,08,41,5.00
2012,02,20,08,42,5.00
2012,02,20,08,43,5.00
2012,02,20,08,44,5.00
2012,02,20,08,45,5.00
2012,02,20,08,46,5.00
2012,02,20,08,47,5.00
2012,02,20,08,48,5.00
2012,02,20,08,49,5.00
2012,02,20,08,51,5.10
2012,02,20,08,52,5.10
2012,02,20,08,53,5.10
2012,02,20,08,54,5.10
2012,02,20,08,56,5.10
2012,02,20,08,57,5.20
2012,02,20,08,59,5.20
2012,02,20,09,01,5.20
2012,02,20,09,02,5.20
2012,02,20,09,03,5.20
2012,02,20,09,04,5.20
2012,02,20,09,06,5.30
2012,02,20,09,07,5.30
2012,02,20,09,08,5.30
2012,02,20,09,09,5.30
2012,02,20,09,11,5.30
2012,02,20,09,12,5.30
2012,02,20,09,13,5.30
2012,02,20,09,14,5.30
2012,02,20,09,16,5.30
2012,02,20,09,17,5.40
2012,02,20,09,18,5.40
2012,02,20,09,19,5.40
2012,02,20,09,21,5.40
2012,02,20,09,22,5.40
2012,02,20,09,24,5.40
2012,02,20,09,26,5.30
2012,02,20,09,28,5.30
2012,02,20,09,29,5.30
2012,02,20,09,30,5.40
2012,02,20,09,31,5.30
2012,02,20,09,33,5.40
2012,02,20,09,34,5.40
2012,02,20,09,35,5.40
2012,02,20,09,36,5.40
2012,02,20,09,37,5.40
2012,02,20,09,39,5.40
2012,02,20,09,40,5.50
2012,02,20,09,41,5.50
2012,02,20,09,42,5.60
2012,02,20,09,43,5.60
2012,02,20,09,45,5.60
2012,02,20,09,46,5.60
2012,02,20,09,47,5.60
2012,02,20,09,49,5.60
2012,02,20,09,50,5.60
2012,02,20,09,51,5.60
2012,02,20,09,52,5.60
2012,02,20,09,54,5.60
2012,02,20,09,55,5.60
2012,02,20,09,56,5.60
2012,02,20,09,57,5.60
2012,02,20,09,59,5.60
2012,02,20,10,00,5.60
2012,02,20,10,01,5.60
2012,02,20,10,02,5.60
2012,02,20,10,04,5.60
2012,02,20,10,05,5.60
2012,02,20,10,06,5.60
2012,02,20,10,07,5.60
2012,02,20,10,09,5.60
2012,02,20,10,10,5.60
2012,02,20,10,11,5.60
2012,02,20,10,12,5.60
2012,02,20,10,14,5.60
2012,02,20,10,15,5.60
2012,02,20,10,16,5.60
2012,02,20,10,17,5.60
2012,02,20,10,19,5.70
2012,02,20,10,20,5.70
2012,02,20,10,21,5.70
2012,02,20,10,22,5.70
2012,02,20,10,24,5.60
2012,02,20,10,25,5.60
2012,02,20,10,26,5.60
2012,02,20,10,27,5.60
2012,02,20,10,28,5.60
2012,02,20,10,30,5.60
2012,02,20,10,31,5.60
2012,02,20,10,32,5.60
2012,02,20,10,34,5.60
2012,02,20,10,35,5.60
2012,02,20,10,36,5.60
2012,02,20,10,38,5.60
2012,02,20,10,39,5.60
2012,02,20,10,40,5.60
2012,02,20,10,41,5.60
2012,02,20,10,43,5.50
2012,02,20,10,44,5.50
2012,02,20,10,45,5.50
2012,02,20,10,46,5.50
2012,02,20,10,48,5.50
2012,02,20,10,49,5.50
2012,02,20,10,50,5.50
2012,02,20,10,51,5.50
2012,02,20,10,53,5.50
2012,02,20,10,54,5.50
2012,02,20,10,55,5.50
2012,02,20,10,56,5.60
2012,02,20,10,58,5.60
2012,02,20,10,59,5.60
2012,02,20,11,00,5.60
2012,02,20,11,01,5.60
2012,02,20,11,03,5.60
2012,02,20,11,04,5.60
2012,02,20,11,05,5.60
2012,02,20,11,07,5.60
2012,02,20,11,08,5.60
2012,02,20,11,09,5.60
2012,02,20,11,10,5.60
2012,02,20,11,11,5.60
2012,02,20,11,13,5.60
2012,02,20,11,14,5.60
2012,02,20,11,15,5.70
2012,02,20,11,16,5.70
2012,02,20,11,18,5.70
2012,02,20,11,19,5.70
2012,02,20,11,20,5.70
2012,02,20,11,21,5.70
2012,02,20,11,23,5.80
2012,02,20,11,24,5.80
2012,02,20,11,25,5.80
2012,02,20,11,26,5.80
2012,02,20,11,28,5.90
2012,02,20,11,29,5.90
2012,02,20,11,30,5.90
2012,02,20,11,31,5.90
2012,02,20,11,32,5.90
2012,02,20,11,34,5.90
2012,02,20,11,35,5.80
2012,02,20,11,36,5.90
2012,02,20,11,37,5.90
2012,02,20,11,39,5.90
2012,02,20,11,40,5.90
2012,02,20,11,41,5.90
2012,02,20,11,43,5.90
2012,02,20,11,44,5.90
2012,02,20,11,45,5.90
2012,02,20,11,46,5.90
2012,02,20,11,47,5.90
2012,02,20,11,48,5.90
2012,02,20,11,49,5.90
2012,02,20,11,50,5.90
2012,02,20,11,51,5.90
2012,02,20,11,52,6.00
2012,02,20,11,54,6.00
2012,02,20,11,55,6.10
2012,02,20,11,56,6.10
2012,02,20,11,57,6.20
2012,02,20,11,59,6.20
2012,02,20,12,00,6.20
2012,02,20,12,01,6.20
2012,02,20,12,02,6.10
2012,02,20,12,03,6.20
2012,02,20,12,05,6.20
2012,02,20,12,06,6.10
2012,02,20,12,07,6.10
2012,02,20,12,09,6.10
2012,02,20,12,10,6.10
2012,02,20,12,11,6.10
2012,02,20,12,12,6.10
2012,02,20,12,13,6.10
2012,02,20,12,15,6.20
2012,02,20,12,16,6.20
2012,02,20,12,17,6.20
2012,02,20,12,19,6.20
2012,02,20,12,20,6.20
2012,02,20,12,21,6.20
2012,02,20,12,22,6.20
2012,02,20,12,24,6.20
2012,02,20,12,25,6.20
2012,02,20,12,26,6.10
2012,02,20,12,27,6.10
2012,02,20,12,29,6.10
2012,02,20,12,30,6.10
2012,02,20,12,31,6.10
2012,02,20,12,32,6.10
2012,02,20,12,34,6.20
2012,02,20,12,35,6.20
2012,02,20,12,36,6.20
2012,02,20,12,38,6.10
2012,02,20,12,39,6.10
2012,02,20,12,40,6.10
2012,02,20,12,41,6.20
2012,02,20,12,42,6.20
2012,02,20,12,44,6.20
2012,02,20,12,45,6.30
2012,02,20,12,46,6.30
2012,02,20,12,47,6.30
2012,02,20,12,49,6.30
2012,02,20,12,50,6.20
2012,02,20,12,51,6.20
2012,02,20,12,53,6.20
2012,02,20,12,54,6.20
2012,02,20,12,55,6.20
2012,02,20,12,57,6.20
2012,02,20,12,58,6.20
2012,02,20,12,59,6.20
2012,02,20,13,00,6.20
2012,02,20,13,02,6.20
2012,02,20,13,03,6.30
2012,02,20,13,04,6.30
2012,02,20,13,05,6.30
2012,02,20,13,07,6.30
2012,02,20,13,08,6.40
2012,02,20,13,09,6.30
2012,02,20,13,10,6.30
2012,02,20,13,12,6.30
2012,02,20,13,13,6.30
2012,02,20,13,14,6.30
2012,02,20,13,15,6.30
2012,02,20,13,17,6.30
2012,02,20,13,18,6.30
2012,02,20,13,19,6.20
2012,02,20,13,20,6.20
2012,02,20,13,22,6.20
2012,02,20,13,23,6.20
2012,02,20,13,24,6.20
2012,02,20,13,25,6.20
2012,02,20,13,27,6.20
2012,02,20,13,28,6.20
2012,02,20,13,29,6.20
2012,02,20,13,30,6.20
2012,02,20,13,32,6.20
2012,02,20,13,33,6.20
2012,02,20,13,34,6.20
2012,02,20,13,36,6.20
2012,02,20,13,37,6.20
2012,02,20,13,38,6.30
2012,02,20,13,39,6.30
2012,02,20,13,41,6.30
2012,02,20,13,42,6.30
2012,02,20,13,43,6.30
2012,02,20,13,44,6.30
2012,02,20,13,46,6.30
2012,02,20,13,47,6.30
2012,02,20,13,48,6.30
2012,02,20,13,50,6.30
2012,02,20,13,51,6.30
2012,02,20,13,52,6.40
2012,02,20,13,54,6.40
2012,02,20,13,55,6.40
2012,02,20,13,56,6.40
2012,02,20,13,58,6.30
2012,02,20,13,59,6.30
2012,02,20,14,00,6.30
2012,02,20,14,01,6.30
2012,02,20,14,03,6.30
2012,02,20,14,04,6.30
2012,02,20,14,05,6.30
2012,02,20,14,06,6.30
2012,02,20,14,08,6.30
2012,02,20,14,09,6.30
2012,02,20,14,10,6.30
2012,02,20,14,11,6.30
2012,02,20,14,13,6.30
2012,02,20,14,14,6.40
2012,02,20,14,15,6.40
2012,02,20,14,16,6.40
2012,02,20,14,18,6.40
2012,02,20,14,19,6.30
2012,02,20,14,20,6.30
2012,02,20,14,21,6.30
2012,02,20,14,23,6.30
2012,02,20,14,24,6.40
2012,02,20,14,25,6.30
2012,02,20,14,26,6.40
2012,02,20,14,27,6.40
2012,02,20,14,29,6.40
2012,02,20,14,30,6.40
2012,02,20,14,31,6.40
2012,02,20,14,32,6.40
2012,02,20,14,33,6.40
2012,02,20,14,35,6.40
2012,02,20,14,36,6.40
2012,02,20,14,37,6.30
2012,02,20,14,39,6.30
2012,02,20,14,40,6.30
2012,02,20,14,41,6.30
2012,02,20,14,42,6.30
2012,02,20,14,43,6.20
2012,02,20,14,44,6.20
2012,02,20,14,45,6.20
2012,02,20,14,46,6.20
2012,02,20,14,47,6.30
2012,02,20,14,49,6.30
2012,02,20,14,50,6.30
2012,02,20,14,51,6.30
2012,02,20,14,52,6.30
2012,02,20,14,54,6.30
2012,02,20,14,55,6.30
2012,02,20,14,56,6.30
2012,02,20,14,58,6.30
2012,02,20,14,59,6.30
2012,02,20,15,00,6.30
2012,02,20,15,01,6.30
2012,02,20,15,03,6.30
2012,02,20,15,04,6.30
2012,02,20,15,05,6.30
2012,02,20,15,06,6.20
2012,02,20,15,08,6.20
2012,02,20,15,09,6.20
2012,02,20,15,10,6.10
2012,02,20,15,11,6.10
2012,02,20,15,12,6.10
2012,02,20,15,13,6.10
2012,02,20,15,14,6.10
2012,02,20,15,15,6.10
2012,02,20,15,17,6.10
2012,02,20,15,18,6.10
2012,02,20,15,19,6.10
2012,02,20,15,20,6.10
2012,02,20,15,21,6.10
2012,02,20,15,23,6.10
2012,02,20,15,24,6.10
2012,02,20,15,25,6.10
2012,02,20,15,27,6.10
2012,02,20,15,29,6.20
2012,02,20,15,31,6.20
2012,02,20,15,32,6.20
2012,02,20,15,34,6.20
2012,02,20,15,36,6.20
2012,02,20,15,37,6.30
2012,02,20,15,38,6.30
2012,02,20,15,39,6.30
2012,02,20,15,41,6.30
2012,02,20,15,42,6.30
2012,02,20,15,43,6.30
2012,02,20,15,45,6.30
2012,02,20,15,46,6.30
2012,02,20,15,47,6.30
2012,02,20,15,48,6.30
2012,02,20,15,49,6.30
2012,02,20,15,51,6.30
2012,02,20,15,52,6.30
2012,02,20,15,53,6.30
2012,02,20,15,54,6.30
2012,02,20,15,56,6.30
2012,02,20,15,57,6.30
2012,02,20,15,58,6.30
2012,02,20,15,59,6.30
2012,02,20,16,01,6.30
2012,02,20,16,02,6.30
2012,02,20,16,03,6.30
2012,02,20,16,04,6.30
2012,02,20,16,06,6.30
2012,02,20,16,07,6.30
2012,02,20,16,09,6.30
2012,02,20,16,11,6.30
2012,02,20,16,12,6.30
2012,02,20,16,14,6.30
2012,02,20,16,16,6.30
2012,02,20,16,17,6.30
2012,02,20,16,18,6.30
2012,02,20,16,19,6.30
2012,02,20,16,21,6.30
2012,02,20,16,22,6.30
2012,02,20,16,23,6.30
2012,02,20,16,24,6.30
2012,02,20,16,26,6.30
2012,02,20,16,27,6.30
2012,02,20,16,29,6.30
2012,02,20,16,30,6.30
2012,02,20,16,31,6.30
2012,02,20,16,32,6.30
2012,02,20,16,33,6.30
2012,02,20,16,35,6.30
2012,02,20,16,36,6.30
2012,02,20,16,37,6.30
2012,02,20,16,38,6.30
2012,02,20,16,40,6.30
2012,02,20,16,41,6.30
2012,02,20,16,42,6.30
2012,02,20,16,43,6.30
2012,02,20,16,44,6.30
2012,02,20,16,46,6.30
2012,02,20,16,47,6.30
2012,02,20,16,48,6.30
2012,02,20,16,49,6.30
2012,02,20,16,51,6.30
2012,02,20,16,52,6.30
2012,02,20,16,53,6.30
2012,02,20,16,54,6.30
2012,02,20,16,55,6.30
2012,02,20,16,57,6.30
2012,02,20,16,58,6.30
2012,02,20,16,59,6.30
2012,02,20,17,01,6.30
2012,02,20,17,02,6.30
2012,02,20,17,03,6.30
2012,02,20,17,04,6.30
2012,02,20,17,06,6.30
2012,02,20,17,07,6.30
2012,02,20,17,08,6.30
2012,02,20,17,09,6.30
2012,02,20,17,11,6.30
2012,02,20,17,12,6.30
2012,02,20,17,13,6.30
2012,02,20,17,14,6.30
2012,02,20,17,15,6.30
2012,02,20,17,16,6.30
2012,02,20,17,17,6.30
2012,02,20,17,18,6.30
2012,02,20,17,19,6.30
2012,02,20,17,20,6.30
2012,02,20,17,21,6.30
2012,02,20,17,23,6.30
2012,02,20,17,24,6.30
2012,02,20,17,26,6.30
2012,02,20,17,27,6.30
2012,02,20,17,28,6.30
2012,02,20,17,29,6.30
2012,02,20,17,31,6.30
2012,02,20,17,32,6.30
2012,02,20,17,33,6.30
2012,02,20,17,35,6.30
2012,02,20,17,36,6.30
2012,02,20,17,37,6.30
2012,02,20,17,38,6.30
2012,02,20,17,39,6.30
2012,02,20,17,41,6.30
2012,02,20,17,42,6.30
2012,02,20,17,43,6.30
2012,02,20,17,44,6.30
2012,02,20,17,46,6.30
2012,02,20,17,47,6.30
2012,02,20,17,48,6.30
2012,02,20,17,49,6.30
2012,02,20,17,51,6.30
2012,02,20,17,52,6.30
2012,02,20,17,53,6.30
2012,02,20,17,54,6.30
2012,02,20,17,56,6.30
2012,02,20,17,57,6.30
2012,02,20,17,58,6.30
2012,02,20,17,59,6.30
2012,02,20,18,01,6.30
2012,02,20,18,02,6.30
2012,02,20,18,03,6.30
2012,02,20,18,05,6.20
2012,02,20,18,06,6.20
2012,02,20,18,07,6.20
2012,02,20,18,08,6.20
2012,02,20,18,09,6.20
2012,02,20,18,11,6.20
2012,02,20,18,12,6.20
2012,02,20,18,13,6.20
2012,02,20,18,14,6.20
2012,02,20,18,16,6.20
2012,02,20,18,17,6.20
2012,02,20,18,18,6.20
2012,02,20,18,20,6.20
2012,02,20,18,21,6.20
2012,02,20,18,22,6.20
2012,02,20,18,23,6.20
2012,02,20,18,25,6.20
2012,02,20,18,26,6.20
2012,02,20,18,27,6.20
2012,02,20,18,28,6.20
2012,02,20,18,29,6.20
2012,02,20,18,31,6.20
2012,02,20,18,32,6.20
2012,02,20,18,33,6.10
2012,02,20,18,34,6.10
2012,02,20,18,36,6.10
2012,02,20,18,37,6.10
2012,02,20,18,38,6.10
2012,02,20,18,39,6.10
2012,02,20,18,40,6.10
2012,02,20,18,42,6.10
2012,02,20,18,43,6.10
2012,02,20,18,44,6.10
2012,02,20,18,46,6.00
2012,02,20,18,47,6.00
2012,02,20,18,48,6.00
2012,02,20,18,49,6.10
2012,02,20,18,51,6.00
2012,02,20,18,52,6.00
2012,02,20,18,53,6.00
2012,02,20,18,55,6.00
2012,02,20,18,56,6.00
2012,02,20,18,57,6.00
2012,02,20,18,58,6.00
2012,02,20,19,00,5.90
2012,02,20,19,01,5.90
2012,02,20,19,02,5.90
2012,02,20,19,04,5.90
2012,02,20,19,05,5.90
2012,02,20,19,06,5.90
2012,02,20,19,07,5.90
2012,02,20,19,09,5.90
2012,02,20,19,10,5.90
2012,02,20,19,11,5.80
2012,02,20,19,12,5.80
2012,02,20,19,13,5.80
2012,02,20,19,15,5.80
2012,02,20,19,16,5.80
2012,02,20,19,17,5.80
2012,02,20,19,18,5.80
2012,02,20,19,19,5.80
2012,02,20,19,21,5.80
2012,02,20,19,22,5.80
2012,02,20,19,23,5.80
2012,02,20,19,25,5.80
2012,02,20,19,26,5.80
2012,02,20,19,27,5.80
2012,02,20,19,29,5.80
2012,02,20,19,31,5.80
2012,02,20,19,32,5.80
2012,02,20,19,33,5.80
2012,02,20,19,34,5.80
2012,02,20,19,36,5.80
2012,02,20,19,37,5.80
2012,02,20,19,38,5.80
2012,02,20,19,39,5.80
2012,02,20,19,40,5.80
2012,02,20,19,41,5.80
2012,02,20,19,42,5.80
2012,02,20,19,43,5.80
2012,02,20,19,44,5.80
2012,02,20,19,45,5.80
2012,02,20,19,46,5.80
2012,02,20,19,47,5.80
2012,02,20,19,48,5.80
2012,02,20,19,49,5.80
2012,02,20,19,52,5.90
2012,02,20,19,53,5.90
2012,02,20,19,54,5.90
2012,02,20,19,56,5.90
2012,02,20,19,57,5.90
2012,02,20,19,58,5.90
2012,02,20,19,59,5.90
2012,02,20,20,01,5.90
2012,02,20,20,02,5.90
2012,02,20,20,03,5.90
2012,02,20,20,04,5.90
2012,02,20,20,05,5.90
2012,02,20,20,06,5.90
2012,02,20,20,07,5.90
2012,02,20,20,08,5.90
2012,02,20,20,09,5.90
2012,02,20,20,10,5.90
2012,02,20,20,11,5.90
2012,02,20,20,13,5.90
2012,02,20,20,14,5.90
2012,02,20,20,16,6.00
2012,02,20,20,17,6.00
2012,02,20,20,18,6.00
2012,02,20,20,19,6.00
2012,02,20,20,20,6.00
2012,02,20,20,21,6.00
2012,02,20,20,22,5.90
2012,02,20,20,23,6.00
2012,02,20,20,24,6.00
2012,02,20,20,26,6.00
2012,02,20,20,27,6.00
2012,02,20,20,29,6.00
2012,02,20,20,31,6.00
2012,02,20,20,32,6.00
2012,02,20,20,33,6.00
2012,02,20,20,35,6.00
2012,02,20,20,36,6.00
2012,02,20,20,37,6.00
2012,02,20,20,38,6.00
2012,02,20,20,39,6.00
2012,02,20,20,41,6.00
2012,02,20,20,42,6.00
2012,02,20,20,43,6.10
2012,02,20,20,44,6.10
2012,02,20,20,46,6.10
2012,02,20,20,47,6.00
2012,02,20,20,48,6.00
2012,02,20,20,49,6.00
2012,02,20,20,51,6.00
2012,02,20,20,52,6.10
2012,02,20,20,53,6.00
2012,02,20,20,54,6.00
2012,02,20,20,55,6.00
2012,02,20,20,56,6.00
2012,02,20,20,57,6.00
2012,02,20,20,58,6.10
2012,02,20,20,59,6.00
2012,02,20,21,01,6.00
2012,02,20,21,02,6.00
2012,02,20,21,04,6.00
2012,02,20,21,06,6.00
2012,02,20,21,07,6.00
2012,02,20,21,08,6.00
2012,02,20,21,09,6.00
2012,02,20,21,11,6.00
2012,02,20,21,12,6.00
2012,02,20,21,13,6.00
2012,02,20,21,14,6.00
2012,02,20,21,15,6.00
2012,02,20,21,16,6.10
2012,02,20,21,17,6.10
2012,02,20,21,18,6.10
2012,02,20,21,19,6.10
2012,02,20,21,20,6.10
2012,02,20,21,21,6.10
2012,02,20,21,22,6.10
2012,02,20,21,23,6.10
2012,02,20,21,24,6.10
2012,02,20,21,25,6.10
2012,02,20,21,26,6.10
2012,02,20,21,27,6.10
2012,02,20,21,28,6.10
2012,02,20,21,29,6.10
2012,02,20,21,31,6.10
2012,02,20,21,32,6.10
2012,02,20,21,33,6.10
2012,02,20,21,35,6.10
2012,02,20,21,36,6.10
2012,02,20,21,37,6.10
2012,02,20,21,38,6.10
2012,02,20,21,39,6.10
2012,02,20,21,41,6.10
2012,02,20,21,42,6.10
2012,02,20,21,43,6.10
2012,02,20,21,44,6.10
2012,02,20,21,46,6.10
2012,02,20,21,47,6.10
2012,02,20,21,48,6.10
2012,02,20,21,49,6.10
2012,02,20,21,51,6.10
2012,02,20,21,52,6.10
2012,02,20,21,53,6.10
2012,02,20,21,54,6.10
2012,02,20,21,55,6.10
2012,02,20,21,56,6.10
2012,02,20,21,58,6.10
2012,02,20,21,59,6.10
2012,02,20,22,00,6.10
2012,02,20,22,02,6.10
2012,02,20,22,03,6.10
2012,02,20,22,04,6.10
2012,02,20,22,05,6.10
2012,02,20,22,07,6.10
2012,02,20,22,08,6.10
2012,02,20,22,09,6.10
2012,02,20,22,11,6.10
2012,02,20,22,12,6.10
2012,02,20,22,13,6.10
2012,02,20,22,15,6.10
2012,02,20,22,16,6.10
2012,02,20,22,17,6.10
2012,02,20,22,19,6.10
2012,02,20,22,20,6.10
2012,02,20,22,21,6.10
2012,02,20,22,22,6.10
2012,02,20,22,23,6.10
2012,02,20,22,24,6.10
2012,02,20,22,25,6.00
2012,02,20,22,26,6.00
2012,02,20,22,28,6.10
2012,02,20,22,29,6.10
2012,02,20,22,30,6.10